Date,TemperatureHighF,TemperatureAvgF,TemperatureLowF,DewpointHighF,DewpointAvgF,DewpointLowF,HumidityHigh,HumidityAvg,HumidityLow,PressureMaxIn,PressureMinIn,WindSpeedMaxMPH,WindSpeedAvgMPH,GustSpeedMaxMPH,PrecipitationSumIn
2013-3-9,38,36,32,34,32,27,92,83,77,30.17,29.82,6,3,15,0.07
2013-3-10,43,38,35,42,38,33,99,97,92,29.81,29.59,8,2,14,0.90
2013-3-11,39,34,30,39,34,27,99,98,90,29.69,29.49,6,2,16,0.36
2013-3-12,32,28,25,28,24,20,94,83,66,29.93,29.69,8,4,18,0.01
2013-3-13,31,24,19,21,12,8,87,62,39,30.25,29.93,10,5,22,0.00
2013-3-14,34,27,17,27,17,10,93,67,39,30.26,30.03,7,2,9,0.00
2013-3-15,37,31,28,32,28,25,95,90,79,30.03,29.80,8,3,16,0.03
2013-3-16,32,27,23,28,23,18,95,83,61,30.09,29.76,9,4,17,0.01
2013-3-17,28,25,18,23,16,10,81,71,63,30.21,30.00,7,4,13,0.00
2013-3-18,33,28,19,31,25,12,95,88,73,30.01,29.54,9,4,25,0.04
2013-3-19,29,20,12,13,10,7,81,67,44,29.98,29.66,12,7,23,0.01
2013-3-20,20,15,10,10,4,-1,67,62,55,30.01,29.96,12,5,21,0.00
2013-3-21,28,18,9,15,8,2,77,66,52,30.00,29.96,8,3,16,0.00
2013-3-22,36,24,15,18,13,9,82,64,40,30.05,29.97,5,2,12,0.00
2013-3-23,38,27,17,25,20,14,89,74,50,30.11,30.03,6,2,11,0.00
2013-3-24,33,31,29,29,26,22,91,81,72,30.03,29.72,11,5,20,0.00
2013-3-25,34,30,28,28,25,22,89,80,67,30.05,29.73,9,5,19,0.00
2013-3-26,40,34,28,29,26,24,84,73,62,30.20,30.05,8,3,17,0.00
2013-3-27,42,35,28,26,23,19,77,60,42,30.27,30.20,8,2,15,0.00
2013-3-28,46,35,26,25,21,19,77,59,37,30.30,30.26,6,1,12,0.00
2013-3-29,50,36,25,27,22,20,83,59,34,30.29,30.22,4,1,10,0.00
2013-3-30,55,43,28,42,29,-100,88,61,45,30.22,29.79,8,3,17,0.01
2013-3-31,51,41,33,42,35,19,95,80,52,29.85,29.67,10,5,22,0.01